AD4CG Weather Reports


time (UTC)temp
F
wind
direction
speed
knots
gust
knots
rain 1hr
in
rain 24hr
in
rain mn
in
humidity
%
barometer
mb
20260906113723 74 31 0.9 0.0 0.00 0.00 0.00 95 1013.2
20260906113215 74 30 0.9 0.0 0.00 0.00 0.00 95 1013.2
20260906112707 74 73 0.0 0.0 0.00 0.00 0.00 95 1013.2
20260906091011 73 96 0.9 0.0 0.00 0.00 0.00 96 1012.2
20260906090502 73 120 0.0 0.0 0.00 0.00 0.00 96 1012.2
20260906085954 72 120 0.9 0.0 0.00 0.00 0.00 96 1012.2
20260906085446 72 26 0.0 0.0 0.00 0.00 0.00 96 1011.9
20260906084938 72 26 0.0 0.0 0.00 0.00 0.00 96 1011.9
20260906084430 72 26 0.0 0.0 0.00 0.00 0.00 96 1011.9
20260906083912 72 26 0.0 0.0 0.00 0.00 0.00 95 1011.9
20260906083403 72 26 0.0 0.0 0.00 0.00 0.00 95 1011.9
20260906082854 72 26 0.0 0.0 0.00 0.00 0.00 95 1011.9
20260906082336 72 25 0.0 0.0 0.00 0.00 0.00 95 1011.9
20260906081827 71 24 0.9 0.0 0.00 0.00 0.00 95 1011.9
20260906081319 71 19 0.0 0.0 0.00 0.00 0.00 95 1011.5
20260906080801 71 19 0.0 0.0 0.00 0.00 0.00 95 1011.5
20260906080253 71 19 0.0 0.0 0.00 0.00 0.00 95 1011.5
20260906075743 71 360 0.0 0.0 0.00 0.00 0.00 95 1011.5
20260906075234 71 360 0.0 0.0 0.00 0.00 0.00 95 1011.5
20260906074726 71 360 0.0 0.0 0.00 0.00 0.00 95 1011.5
20260906074208 71 360 0.0 0.0 0.00 0.00 0.00 95 1011.5
20260906073700 71 360 0.0 0.0 0.00 0.00 0.00 94 1011.5
20260906073152 71 360 0.0 0.0 0.00 0.00 0.00 94 1011.5
20260906072633 71 360 0.0 0.0 0.00 0.00 0.00 94 1011.5
20260906072124 72 330 0.0 0.0 0.00 0.00 0.00 95 1011.2
20260906071616 72 330 0.0 0.0 0.00 0.00 0.00 94 1011.2
20260906071057 72 330 0.0 0.0 0.00 0.00 0.00 94 1011.2
20260906070549 72 330 0.9 0.0 0.00 0.00 0.00 94 1011.5
20260906070041 71 330 0.0 0.0 0.00 0.00 0.00 94 1011.5
20260906065533 71 330 0.0 0.0 0.00 0.00 0.00 94 1011.5
20260906065025 71 330 0.0 0.0 0.00 0.00 0.00 94 1011.2
20260906064519 71 330 0.0 0.0 0.00 0.00 0.00 94 1011.2
20260906064011 71 330 0.0 0.0 0.00 0.00 0.00 94 1011.2
20260906063506 71 330 0.0 0.0 0.00 0.00 0.00 93 1011.5
20260906062948 71 330 0.0 0.0 0.00 0.00 0.00 93 1011.5
20260906062439 72 330 0.0 0.0 0.00 0.00 0.00 93 1011.5
20260906061931 72 330 0.0 0.0 0.00 0.00 0.00 93 1011.5
20260906061423 72 330 0.0 0.0 0.00 0.00 0.00 93 1011.5
20260906060904 72 330 0.0 0.0 0.00 0.00 0.00 93 1011.9
20260906060357 72 330 0.0 0.0 0.00 0.00 0.00 93 1011.9
20260906055848 72 330 0.0 0.0 0.00 0.00 0.00 92 1011.9
20260906055340 72 330 0.0 0.0 0.00 0.00 0.00 92 1011.9
20260906054833 72 330 0.0 0.0 0.00 0.00 0.00 92 1011.9
20260906054314 72 330 0.0 0.0 0.00 0.00 0.00 92 1011.9
20260906053805 72 330 0.9 0.0 0.00 0.00 0.00 92 1011.9
20260906053257 72 330 0.9 0.0 0.00 0.00 0.00 92 1011.9
20260906052738 72 330 0.9 0.0 0.00 0.00 0.00 92 1012.2
20260906052229 72 323 0.0 0.0 0.00 0.00 0.00 93 1012.2
20260906051721 72 319 1.7 0.0 0.00 0.00 0.00 93 1012.2
20260906051212 72 329 0.0 0.0 0.00 0.00 0.00 93 1012.2
20260906050654 72 329 0.9 0.0 0.00 0.00 0.00 93 1012.2
20260906050145 72 257 0.9 0.0 0.00 0.00 0.00 94 1012.5
20260906045636 72 236 0.0 0.0 0.00 0.00 0.00 94 1012.5
20260906045126 72 236 0.0 0.0 0.00 0.00 0.00 94 1012.5
20260906044618 72 236 0.0 0.0 0.00 0.00 0.00 94 1012.5
20260906044109 72 236 0.0 0.0 0.00 0.00 0.00 93 1012.5
20260906043601 72 236 0.0 0.0 0.00 0.00 0.00 94 1012.5
20260906043053 72 236 0.0 0.0 0.00 0.00 0.00 93 1012.5
20260906042545 73 236 0.0 0.0 0.00 0.00 0.00 93 1012.5
20260906042031 73 236 0.0 0.0 0.00 0.00 0.00 93 1012.5
20260906041526 73 236 0.0 0.0 0.00 0.00 0.00 93 1012.5
20260906041017 73 324 0.0 0.0 0.00 0.00 0.00 94 1012.5
20260906040509 73 300 0.0 0.0 0.00 0.00 0.00 94 1012.5
20260906040001 73 300 0.0 0.0 0.00 0.01 0.01 94 1012.5
20260906035452 73 290 0.0 0.0 0.00 0.01 0.01 93 1012.5
20260906034943 73 287 0.0 0.0 0.00 0.01 0.01 94 1012.9
20260906034429 73 287 0.0 0.0 0.00 0.01 0.01 94 1012.5
20260906033920 73 260 0.0 0.0 0.00 0.01 0.01 93 1012.5
20260906033411 73 128 0.9 0.0 0.00 0.01 0.01 93 1012.9
20260906032902 73 124 0.0 0.0 0.00 0.01 0.01 93 1012.9
20260906032352 73 124 0.0 0.0 0.00 0.01 0.01 93 1012.9
20260906031843 73 124 0.0 0.0 0.00 0.01 0.01 93 1012.9
20260906031334 73 124 0.0 0.0 0.00 0.01 0.01 93 1012.9
20260906030825 73 123 0.0 0.0 0.00 0.01 0.01 93 1012.9
20260906030316 73 122 0.0 0.0 0.00 0.01 0.01 93 1012.5
20260906025807 73 122 0.0 0.0 0.00 0.01 0.01 93 1012.9
20260906025258 73 122 0.0 0.0 0.00 0.01 0.01 93 1012.9
20260906024750 73 122 0.9 0.0 0.00 0.01 0.01 93 1012.9
20260906024240 73 122 0.0 0.0 0.00 0.01 0.01 93 1012.9
20260906023731 73 122 0.0 0.0 0.00 0.01 0.01 93 1012.9
20260906023221 74 122 0.0 0.0 0.00 0.01 0.01 93 1013.2
20260906022712 74 122 0.0 0.0 0.00 0.01 0.01 92 1012.9
20260906022154 74 122 0.0 0.0 0.00 0.01 0.01 92 1012.9
20260906021645 74 122 0.0 0.0 0.00 0.01 0.01 92 1012.9
20260906021136 74 122 0.0 0.0 0.00 0.01 0.01 92 1012.9
20260906020616 74 122 0.0 0.0 0.00 0.01 0.01 92 1012.9
20260906020056 74 122 0.0 0.0 0.00 0.01 0.01 92 1012.9
20260906015547 74 122 0.9 0.0 0.00 0.01 0.01 93 1012.9
20260906015038 74 184 0.0 0.0 0.00 0.01 0.01 93 1012.9
20260906014529 74 223 2.6 0.0 0.00 0.01 0.01 92 1012.5
20260906014020 74 218 0.0 0.0 0.00 0.01 0.01 92 1012.5
20260906013511 74 252 2.6 0.0 0.00 0.01 0.01 92 1012.5
20260906012952 74 215 0.0 0.0 0.00 0.01 0.01 92 1012.2
20260906012433 74 207 0.9 0.0 0.00 0.01 0.01 92 1012.5
20260906011924 74 230 0.9 0.0 0.00 0.01 0.01 92 1012.2
20260906011415 75 297 0.0 0.0 0.00 0.01 0.01 92 1012.2
20260906010855 75 298 0.0 0.0 0.00 0.01 0.01 91 1012.2
20260906010347 75 298 0.0 0.0 0.00 0.01 0.01 91 1012.2
20260906005838 75 298 0.0 0.0 0.00 0.01 0.01 91 1011.9
20260906005328 75 298 0.0 0.0 0.00 0.01 0.01 91 1011.9
20260906004819 75 298 0.0 0.0 0.00 0.01 0.01 91 1011.9
20260906004311 75 290 0.0 0.0 0.00 0.01 0.01 91 1011.9
20260906003802 75 132 0.0 0.0 0.00 0.01 0.01 91 1012.2
20260906003253 76 132 0.0 0.0 0.00 0.01 0.01 91 1011.9
20260906002745 76 132 0.0 0.0 0.00 0.01 0.01 91 1011.9
20260906002226 76 104 0.9 0.0 0.00 0.01 0.01 90 1011.9
20260906001717 76 177 0.9 0.0 0.00 0.01 0.01 90 1011.9
20260906001208 76 169 0.0 0.0 0.00 0.01 0.01 90 1011.9
20260906000650 76 169 0.0 0.0 0.00 0.01 0.01 90 1011.5
20260906000131 76 169 0.0 0.0 0.00 0.01 0.01 90 1011.5
20260905235612 76 169 0.0 0.0 0.00 0.01 0.01 89 1011.2
20260905235104 76 169 0.0 0.0 0.00 0.01 0.01 89 1011.5
20260905234555 76 169 0.0 0.0 0.00 0.01 0.01 89 1011.2
20260905234046 76 169 0.0 0.0 0.00 0.01 0.01 89 1010.8
20260905233527 76 169 0.0 0.0 0.00 0.01 0.01 89 1010.8
20260905233018 76 168 0.0 0.0 0.00 0.01 0.01 89 1010.8
20260905232508 76 167 0.0 0.0 0.00 0.01 0.01 88 1010.8
20260905231959 76 302 0.0 0.0 0.00 0.01 0.01 88 1010.8
20260905231440 76 302 0.9 0.0 0.00 0.01 0.01 88 1010.8
20260905230931 76 304 0.9 0.0 0.00 0.01 0.01 88 1010.8
20260905230422 76 142 0.9 0.0 0.00 0.01 0.01 88 1010.5
20260905225909 77 80 0.0 0.0 0.00 0.01 0.01 87 1010.5
20260905225400 77 74 0.0 0.0 0.00 0.01 0.01 87 1010.2
20260905224852 77 21 0.0 0.0 0.01 0.01 0.01 86 1010.2
20260905224333 77 20 0.0 0.0 0.01 0.01 0.01 87 1010.2
20260905223824 77 20 0.0 0.0 0.01 0.01 0.01 86 1010.2
20260905223315 77 134 0.0 0.9 0.01 0.01 0.01 86 1010.2
20260905222756 78 106 2.6 0.0 0.01 0.01 0.01 86 1010.2
20260905222247 78 72 0.0 0.0 0.01 0.01 0.01 85 1010.2
20260905221739 78 72 0.0 0.0 0.01 0.01 0.01 83 1010.2
20260905221219 78 72 0.0 0.0 0.01 0.01 0.01 83 1009.8
20260905220710 79 174 0.0 0.0 0.01 0.01 0.01 80 1009.8
20260905220204 80 209 0.0 0.0 0.01 0.01 0.01 78 1010.2
20260905215655 80 134 0.0 0.0 0.01 0.01 0.01 77 1010.5
20260905215146 81 143 0.0 0.9 0.01 0.01 0.01 74 1010.5
20260905214637 82 324 0.0 0.9 0.00 0.00 0.00 72 1010.5
20260905214129 82 273 0.0 0.0 0.00 0.00 0.00 71 1010.5
20260905213620 81 274 0.0 0.0 0.00 0.00 0.00 72 1010.8
20260905213111 81 284 0.0 0.9 0.00 0.00 0.00 73 1010.8
20260905212602 80 181 0.0 0.9 0.00 0.00 0.00 74 1011.2
20260905212053 80 248 0.0 0.0 0.00 0.00 0.00 74 1010.5
20260905211544 80 98 0.0 0.0 0.00 0.00 0.00 75 1010.5
20260905211025 80 132 0.0 0.9 0.00 0.00 0.00 74 1010.5
20260905210506 81 340 0.0 0.0 0.00 0.00 0.00 74 1010.5
20260905205957 82 360 0.0 1.7 0.00 0.00 0.00 70 1010.2
20260905205439 84 38 0.0 0.9 0.00 0.00 0.00 66 1010.2
20260905204451 88 30 2.6 1.7 0.00 0.00 0.00 58 1009.8
20260905203948 94 67 2.6 0.9 0.00 0.00 0.00 1009.8
20260905203441 94 338 0.0 0.0 0.00 0.00 0.00 49 1009.5
20260905202932 94 311 0.0 0.0 0.00 0.00 0.00 50 1009.5
20260905202422 95 317 0.0 0.0 0.00 0.00 0.00 48 1009.5
20260905201913 95 306 0.0 0.0 0.00 0.00 0.00 49 1009.5
20260905201357 96 341 0.9 0.0 0.00 0.00 0.00 48 1009.5
20260905200848 96 335 0.9 0.0 0.00 0.00 0.00 50 1009.5
20260905200328 96 185 1.7 0.9 0.00 0.00 0.00 49 1009.1
20260905195819 96 219 0.0 0.9 0.00 0.00 0.00 50 1009.5
20260905195309 96 215 0.0 0.0 0.00 0.00 0.00 49 1009.5
20260905194800 96 210 0.0 0.0 0.00 0.00 0.00 48 1009.8
20260905194250 97 313 0.9 0.0 0.00 0.00 0.00 46 1009.8
20260905193741 96 267 0.0 0.0 0.00 0.00 0.00 47 1009.8
20260905193232 97 331 0.0 0.0 0.00 0.00 0.00 46 1009.8
20260905192722 97 334 0.9 0.0 0.00 0.00 0.00 46 1009.8
20260905192216 97 277 0.9 0.9 0.00 0.00 0.00 45 1009.8
20260905191706 97 243 0.9 0.9 0.00 0.00 0.00 45 1009.8
20260905191147 97 260 0.0 0.9 0.00 0.00 0.00 46 1009.8
20260905190642 97 229 0.0 0.9 0.00 0.00 0.00 45 1009.8
20260905190123 97 225 0.0 0.0 0.00 0.00 0.00 46 1009.8
20260905185613 97 350 0.0 0.9 0.00 0.00 0.00 46 1009.8
20260905185104 97 321 0.0 0.9 0.00 0.00 0.00 47 1009.8
20260905184555 97 275 0.0 0.0 0.00 0.00 0.00 47 1010.2
20260905184045 97 44 0.0 0.0 0.00 0.00 0.00 47 1010.2
20260905183536 96 261 0.0 0.9 0.00 0.00 0.00 47 1010.2
20260905183026 95 281 0.0 0.9 0.00 0.00 0.00 49 1010.5
20260905182224 96 304 0.0 0.0 0.00 0.00 0.00 48 1010.5
20260905181715 96 9 0.0 0.9 0.00 0.00 0.00 47 1010.8
20260905181206 96 350 0.0 0.9 0.00 0.00 0.00 47 1010.8
20260905180647 96 340 0.0 0.0 0.00 0.00 0.00 48 1010.8
20260905180138 96 177 1.7 0.9 0.00 0.00 0.00 48 1010.8
20260905175629 96 265 0.0 0.9 0.00 0.00 0.00 48 1011.2
20260905175109 96 325 0.0 0.0 0.00 0.00 0.00 50 1011.2
20260905174600 96 327 0.0 0.9 0.00 0.00 0.00 49 1011.5
20260905174050 95 331 0.0 0.9 0.00 0.00 0.00 48 1011.5
20260905173541 95 355 0.0 0.9 0.00 0.00 0.00 50 1011.9
20260905173032 95 311 3.5 0.0 0.00 0.00 0.00 50 1011.9
20260905172512 94 288 0.0 0.9 0.00 0.00 0.00 52 1011.9
20260905172003 95 319 4.3 0.9 0.00 0.00 0.00 53 1011.9
20260905171453 94 304 0.0 0.9 0.00 0.00 0.00 52 1011.9
20260905170944 95 347 0.0 0.9 0.00 0.00 0.00 51 1011.9
20260905170435 95 307 3.5 0.9 0.00 0.00 0.00 51 1011.9
20260905165925 94 232 0.0 0.0 0.00 0.00 0.00 53 1012.2
20260905165415 93 11 0.0 0.9 0.00 0.00 0.00 55 1012.2
20260905164906 93 273 0.0 0.9 0.00 0.00 0.00 54 1012.2
20260905164357 93 322 1.7 0.0 0.00 0.00 0.00 55 1012.2
20260905163843 93 294 0.0 0.0 0.00 0.00 0.00 56 1012.5
20260905163332 93 295 0.0 0.9 0.00 0.00 0.00 56 1012.5
20260905162822 94 322 2.6 0.0 0.00 0.00 0.00 57 1012.5
20260905162313 93 334 0.9 0.9 0.00 0.00 0.00 57 1012.5
20260905161807 92 340 0.0 0.9 0.00 0.00 0.00 57 1012.9
20260905161258 91 339 0.0 0.9 0.00 0.00 0.00 60 1012.9
20260905160748 92 279 0.0 0.9 0.00 0.00 0.00 59 1012.9
20260905160239 91 340 0.9 0.0 0.00 0.00 0.00 60 1012.9
20260905155730 91 302 0.0 0.0 0.00 0.00 0.00 62 1012.9
20260905155221 90 286 0.0 0.0 0.00 0.00 0.00 62 1012.9
20260905154712 90 304 0.0 0.0 0.00 0.00 0.00 64 1013.2
20260905154202 90 289 0.0 0.9 0.00 0.00 0.00 64 1013.2
20260905153653 90 36 0.0 0.9 0.00 0.00 0.00 64 1013.2
20260905153142 89 355 0.0 0.0 0.00 0.00 0.00 65 1013.2
20260905152632 89 360 0.0 0.0 0.00 0.00 0.00 65 1013.2
20260905152113 89 286 1.7 0.9 0.00 0.00 0.00 66 1013.2
20260905151603 89 319 0.0 0.9 0.00 0.00 0.00 67 1013.2
20260905151053 89 334 0.0 0.9 0.00 0.00 0.00 66 1013.2
20260905150544 89 355 0.0 0.9 0.00 0.00 0.00 67 1013.2
20260905150025 88 25 0.0 0.0 0.00 0.00 0.00 69 1013.2
20260905145516 88 309 0.0 0.9 0.00 0.00 0.00 68 1013.2
20260905145007 88 312 6.1 0.9 0.00 0.00 0.00 68 1013.2
20260905144458 88 355 1.7 0.0 0.00 0.00 0.00 69 1013.2
20260905143950 87 329 0.9 0.0 0.00 0.00 0.00 71 1013.2
20260905143442 87 290 0.9 0.0 0.00 0.00 0.00 72 1013.2
20260905142923 86 360 0.0 0.0 0.00 0.00 0.00 72 1013.2
20260905142414 86 249 0.0 0.0 0.00 0.00 0.00 73 1013.2
20260905141905 86 183 0.0 0.0 0.00 0.00 0.00 75 1013.2
20260905141357 85 313 0.0 0.0 0.00 0.00 0.00 75 1013.2
20260905140849 85 318 0.0 0.0 0.00 0.00 0.00 76 1013.2
20260905140048 85 218 0.0 0.0 0.00 0.00 0.00 77 1013.2
20260905135539 84 348 1.7 0.0 0.00 0.00 0.00 78 1013.2
20260905135031 84 232 0.0 0.9 0.00 0.00 0.00 78 1013.2
20260905134522 83 267 0.0 0.9 0.00 0.00 0.00 79 1013.2
20260905134013 83 22 0.0 0.9 0.00 0.00 0.00 79 1013.2
20260905133505 83 327 1.7 0.9 0.00 0.00 0.00 80 1013.2
20260905132956 83 143 0.0 0.0 0.00 0.00 0.00 81 1013.2
20260905132448 82 229 0.0 0.9 0.00 0.00 0.00 81 1013.5
20260905131939 82 290 0.0 0.9 0.00 0.00 0.00 81 1013.5
20260905131421 82 217 0.0 0.0 0.00 0.00 0.00 82 1013.5
20260905130907 81 235 0.0 0.0 0.00 0.00 0.00 83 1013.5
20260905130359 81 360 0.0 0.0 0.00 0.00 0.00 83 1013.5
20260905125849 80 204 0.0 0.9 0.00 0.00 0.00 84 1013.5
20260905125340 80 234 5.2 0.9 0.00 0.00 0.00 84 1013.5
20260905124835 80 215 0.0 0.9 0.00 0.00 0.00 85 1013.5
20260905124326 80 269 0.9 0.0 0.00 0.00 0.00 85 1013.9
20260905123817 80 128 0.0 0.0 0.00 0.00 0.00 86 1013.5
20260905123308 79 203 0.0 0.0 0.00 0.00 0.00 86 1013.5
20260905122800 79 228 1.7 0.0 0.00 0.00 0.00 87 1013.5
20260905122252 79 193 0.9 0.0 0.00 0.00 0.00 88 1013.5
20260905121744 78 266 0.0 0.0 0.00 0.00 0.00 89 1013.5
20260905121235 78 261 1.7 0.0 0.00 0.00 0.00 89 1013.5
20260905120726 77 286 0.0 0.0 0.00 0.00 0.00 89 1013.5
20260905120218 77 286 0.0 0.0 0.00 0.00 0.00 90 1013.5
20260905115709 76 262 0.0 0.0 0.00 0.00 0.00 90 1013.5
20260905115150 76 215 0.0 0.0 0.00 0.00 0.00 91 1013.5
20260905114642 75 215 0.0 0.0 0.00 0.00 0.00 91 1013.5
20260905114134 75 215 0.0 0.0 0.00 0.00 0.00 91 1013.2